TimeHST,TemperatureF,Dew PointF,Humidity,Sea Level PressureIn,VisibilityMPH,Wind Direction,Wind SpeedMPH,Gust SpeedMPH,PrecipitationIn,Events,Conditions,WindDirDegrees,DateUTC
12:53 AM,70.0,68.0,93,30.03,10.0,WSW,5.8,-,N/A,,Partly Cloudy,240,2013-10-28 10:53:00
1:53 AM,71.1,66.0,84,30.02,10.0,SW,5.8,-,N/A,,Overcast,230,2013-10-28 11:53:00
2:53 AM,71.1,64.9,81,30.00,10.0,SSW,3.5,-,N/A,,Mostly Cloudy,200,2013-10-28 12:53:00
3:53 AM,69.1,66.0,90,30.00,10.0,SW,4.6,-,0.00,,Partly Cloudy,220,2013-10-28 13:53:00
4:53 AM,70.0,66.0,87,30.00,10.0,South,4.6,-,N/A,,Overcast,190,2013-10-28 14:53:00
5:53 AM,70.0,66.9,90,30.01,10.0,South,5.8,-,N/A,,Mostly Cloudy,170,2013-10-28 15:53:00
6:53 AM,71.1,66.0,84,30.01,10.0,SW,5.8,-,N/A,,Mostly Cloudy,230,2013-10-28 16:53:00
7:53 AM,73.9,66.0,76,30.02,10.0,WSW,3.5,-,N/A,,Mostly Cloudy,240,2013-10-28 17:53:00
8:53 AM,80.1,70.0,71,30.04,10.0,Calm,Calm,-,N/A,,Mostly Cloudy,0,2013-10-28 18:53:00
9:53 AM,81.0,71.1,72,30.04,10.0,SSE,5.8,-,N/A,,Mostly Cloudy,160,2013-10-28 19:53:00
10:53 AM,82.9,71.1,67,30.02,10.0,NNE,6.9,-,N/A,,Scattered Clouds,20,2013-10-28 20:53:00
11:53 AM,84.0,72.0,67,30.00,10.0,NE,8.1,-,N/A,,Partly Cloudy,40,2013-10-28 21:53:00
12:53 PM,84.0,72.0,67,29.98,10.0,ENE,9.2,-,N/A,,Scattered Clouds,60,2013-10-28 22:53:00
1:53 PM,82.9,71.1,67,29.96,10.0,NE,9.2,-,N/A,,Clear,40,2013-10-28 23:53:00
2:53 PM,82.9,70.0,65,29.95,10.0,NNE,11.5,-,N/A,,Scattered Clouds,20,2013-10-29 00:53:00
3:53 PM,82.0,69.1,65,29.96,10.0,ENE,11.5,-,N/A,,Partly Cloudy,60,2013-10-29 01:53:00
4:53 PM,79.0,66.9,66,29.97,10.0,NE,8.1,-,N/A,,Clear,50,2013-10-29 02:53:00
5:53 PM,77.0,66.9,71,29.99,10.0,NE,3.5,-,N/A,,Clear,50,2013-10-29 03:53:00
6:53 PM,73.0,69.1,87,30.02,10.0,Calm,Calm,-,N/A,,Clear,0,2013-10-29 04:53:00
7:53 PM,73.0,69.1,87,30.05,10.0,WSW,3.5,-,N/A,,Mostly Cloudy,250,2013-10-29 05:53:00
8:53 PM,72.0,68.0,87,30.06,10.0,WSW,5.8,-,N/A,,Clear,240,2013-10-29 06:53:00
9:53 PM,71.1,66.9,87,30.06,10.0,WSW,5.8,-,N/A,,Clear,250,2013-10-29 07:53:00
10:53 PM,70.0,64.9,84,30.06,10.0,WSW,5.8,-,N/A,,Partly Cloudy,250,2013-10-29 08:53:00
11:53 PM,70.0,66.0,87,30.05,9.0,SSW,6.9,-,0.03,Rain,Light Rain,210,2013-10-29 09:53:00